Hourly Data Report for October 11, 2015

All times are specified in Local Standard Time (LST). Add 1 hour to adjust for Daylight Saving Time where and when it is observed.

CAPE DORSET A
NUNAVUT

64°13'49.000" N
76°31'30.000" W
48.20 m
2400637
71366
YTE

Download Data

Hourly Data (October 2015)
Hourly Data Report for October 11, 2015
Temp Definition
°C
Dew Point Temp Definition
°C
Rel Hum Definition
%
Wind Dir Definition
10's deg

Wind Spd Definition
km/h
Visibility Definition
km
Stn Press Definition
kPa
Hmdx Definition


Wind Chill Definition


Weather Definition


TIME
00:00 Legend Double Dagger -1.9 -3.0 92 1 9 16.1 99.23   -5 Snow
01:00 Legend Double Dagger -2.3 -3.0 95 35 11 16.1 99.25   -6 Snow
02:00 Legend Double Dagger -2.2 -3.0 94 36 9 16.1 99.26   -6 LegendNANA
03:00 Legend Double Dagger -2.1 -2.2 99 2 13 11.3 99.26   -7 LegendNANA
04:00 Legend Double Dagger -2.1 -2.4 98 3 11 16.1 99.28   -6 LegendNANA
05:00 Legend Double Dagger -1.9 -2.9 93 5 17 16.1 99.30   -7 LegendNANA
06:00 Legend Double Dagger -2.0 -4.0 86 5 15 16.1 99.34   -7 LegendNANA
07:00 Legend Double Dagger -1.8 -4.5 82 5 15 16.1 99.35   -7 LegendNANA
08:00 Legend Double Dagger -1.8 -4.2 84 5 8 16.1 99.37   -5 LegendNANA
09:00 Legend Double Dagger -2.0 -4.1 86 3 9 16.1 99.40   -5 LegendNANA
10:00 Legend Double Dagger -2.1 -4.6 83 5 9 16.1 99.41   -6 LegendNANA
11:00 Legend Double Dagger -2.1 -4.5 84 33 8 16.1 99.42   -5 Snow
12:00 Legend Double Dagger -2.1 -4.4 84 6 9 16.1 99.42   -6 Snow
13:00 Legend Double Dagger -2.7 -4.6 87 2 9 16.1 99.43   -6 LegendNANA
14:00 Legend Double Dagger -2.9 -4.6 88 34 9 16.1 99.45   -6 LegendNANA
15:00 Legend Double Dagger -2.8 -4.5 88 31 8 16.1 99.48   -6 LegendNANA
16:00 Legend Double Dagger -3.6 -5.0 90 26 4 16.1 99.51   -5 LegendNANA
17:00 Legend Double Dagger -4.3 -5.4 92 25 4 16.1 99.51   -6 LegendNANA
18:00 Legend Double Dagger -3.9 -5.3 90 28 4 16.1 99.54   -6 LegendNANA
19:00 Legend Double Dagger -4.5 -5.8 91 26 8 16.1 99.55   -8 LegendNANA
20:00 Legend Double Dagger -4.6 -5.7 92 25 5 16.1 99.55   -7 LegendNANA
21:00 Legend Double Dagger -4.6 -5.6 93 26 8 16.1 99.55   -8 LegendNANA
22:00 Legend Double Dagger -4.0 -4.8 94 28 9 16.1 99.55   -8 LegendNANA
23:00 Legend Double Dagger -4.6 -5.1 96 25 8 16.1 99.56   -8 LegendNANA

Notes on Data Quality.

Legend

  • E = Estimated
  • M = Missing
  • NA = Not Available
  • ‡ = Partner data that is not subject to review by the National Climate Archives
Date modified: